| time (UTC) | temp F | wind direction | speed MPH | gust MPH | rain 1hr in | rain 24hr in | rain mn in | humidity % | barometer mb |
| 20260507012514 | 46 | 56 | 4.0 | 6.0 | 0.00 | 0.00 | 0.00 | 40 | 1014.0 |
| 20260507012010 | 46 | 54 | 4.0 | 6.0 | 0.00 | 0.00 | 0.00 | 40 | 1014.0 |
| 20260507011555 | 46 | 90 | 3.0 | 5.0 | 0.00 | 0.00 | 0.00 | 41 | 1013.6 |
| 20260507011513 | 46 | 53 | 3.0 | 5.0 | 0.00 | 0.00 | 0.00 | 40 | 1014.1 |
| 20260507011005 | 47 | 46 | 3.0 | 6.0 | 0.00 | 0.00 | 0.00 | 40 | 1014.1 |
| 20260507010506 | 47 | 58 | 3.0 | 6.0 | 0.00 | 0.00 | 0.00 | 40 | 1014.1 |
| 20260507010046 | 47 | 31 | 3.0 | 5.0 | 0.00 | 0.00 | 0.00 | 39 | 1013.7 |
| 20260507010016 | 47 | 60 | 3.0 | 6.0 | 0.00 | 0.00 | 0.00 | 39 | 1014.1 |
| 20260507005508 | 47 | 34 | 3.0 | 6.0 | 0.00 | 0.00 | 0.00 | 39 | 1014.1 |
| 20260507005009 | 48 | 31 | 3.0 | 6.0 | 0.00 | 0.00 | 0.00 | 38 | 1014.2 |
| 20260507004541 | 48 | 27 | 2.0 | 6.0 | 0.00 | 0.00 | 0.00 | 38 | 1013.9 |
| 20260507004522 | 48 | 352 | 3.0 | 6.0 | 0.00 | 0.00 | 0.00 | 38 | 1014.2 |
| 20260507004007 | 48 | 20 | 4.0 | 6.0 | 0.00 | 0.00 | 0.00 | 38 | 1014.2 |
| 20260507003508 | 48 | 45 | 2.0 | 5.0 | 0.00 | 0.00 | 0.00 | 38 | 1014.2 |
| 20260507003040 | 48 | 6 | 3.0 | 5.0 | 0.00 | 0.00 | 0.00 | 37 | 1013.9 |
| 20260507003026 | 48 | 25 | 3.0 | 8.0 | 0.00 | 0.00 | 0.00 | 37 | 1014.2 |
| 20260507002510 | 48 | 61 | 4.0 | 9.0 | 0.00 | 0.00 | 0.00 | 37 | 1014.3 |
| 20260507002012 | 49 | 13 | 4.0 | 11.0 | 0.00 | 0.00 | 0.00 | 37 | 1014.3 |
| 20260507001555 | 49 | 40 | 6.0 | 11.0 | 0.00 | 0.00 | 0.00 | 37 | 1014.0 |
| 20260507001525 | 49 | 15 | 6.0 | 11.0 | 0.00 | 0.00 | 0.00 | 37 | 1014.4 |
| 20260507001012 | 50 | 32 | 3.0 | 7.0 | 0.00 | 0.00 | 0.00 | 36 | 1014.4 |
| 20260507000513 | 50 | 314 | 4.0 | 7.0 | 0.00 | 0.00 | 0.00 | 36 | 1014.4 |
| 20260507000043 | 50 | 16 | 2.0 | 6.0 | 0.00 | 0.00 | 0.00 | 36 | 1014.1 |
| 20260507000014 | 50 | 9 | 3.0 | 7.0 | 0.00 | 0.00 | 0.00 | 35 | 1014.4 |
| 20260506235507 | 49 | 309 | 4.0 | 9.0 | 0.00 | 0.00 | 0.00 | 36 | 1014.5 |
| 20260506235008 | 50 | 299 | 6.0 | 9.0 | 0.00 | 0.00 | 0.00 | 35 | 1014.5 |
| 20260506234540 | 51 | 341 | 3.0 | 8.0 | 0.00 | 0.00 | 0.00 | 36 | 1014.1 |
| 20260506234515 | 51 | 330 | 3.0 | 15.0 | 0.00 | 0.00 | 0.00 | 35 | 1014.5 |
| 20260506234006 | 51 | 340 | 3.0 | 15.0 | 0.00 | 0.00 | 0.00 | 36 | 1014.5 |
| 20260506233507 | 51 | 308 | 8.0 | 15.0 | 0.00 | 0.00 | 0.00 | 35 | 1014.5 |
| 20260506233034 | 51 | 311 | 2.0 | 11.0 | 0.00 | 0.00 | 0.00 | 36 | 1014.2 |
| 20260506233025 | 51 | 302 | 4.0 | 11.0 | 0.00 | 0.00 | 0.00 | 34 | 1014.6 |
| 20260506232509 | 51 | 255 | 4.0 | 7.0 | 0.00 | 0.00 | 0.00 | 36 | 1014.6 |
| 20260506232007 | 50 | 23 | 3.0 | 7.0 | 0.00 | 0.00 | 0.00 | 36 | 1014.7 |
| 20260506231534 | 50 | 38 | 1.0 | 7.0 | 0.00 | 0.00 | 0.00 | 36 | 1014.4 |
| 20260506231524 | 50 | 37 | 1.0 | 7.0 | 0.00 | 0.00 | 0.00 | 35 | 1014.7 |
| 20260506231008 | 50 | 305 | 4.0 | 7.0 | 0.00 | 0.00 | 0.00 | 36 | 1014.8 |
| 20260506230510 | 51 | 296 | 3.0 | 10.0 | 0.00 | 0.00 | 0.00 | 34 | 1014.9 |
| 20260506230030 | 51 | 278 | 4.0 | 10.0 | 0.00 | 0.00 | 0.00 | 36 | 1014.6 |
| 20260506230028 | 50 | 301 | 5.0 | 10.0 | 0.00 | 0.00 | 0.00 | 35 | 1014.9 |
| 20260506225508 | 51 | 306 | 4.0 | 8.0 | 0.00 | 0.00 | 0.00 | 36 | 1014.9 |
| 20260506225011 | 50 | 302 | 4.0 | 9.0 | 0.00 | 0.00 | 0.00 | 36 | 1014.9 |
| 20260506224525 | 50 | 331 | 1.0 | 10.0 | 0.00 | 0.00 | 0.00 | 35 | 1014.6 |
| 20260506224517 | 50 | 249 | 3.0 | 10.0 | 0.00 | 0.00 | 0.00 | 35 | 1014.9 |
| 20260506224006 | 50 | 313 | 6.0 | 12.0 | 0.00 | 0.00 | 0.00 | 36 | 1015.1 |
| 20260506223505 | 50 | 17 | 6.0 | 14.0 | 0.00 | 0.00 | 0.00 | 36 | 1015.1 |
| 20260506223022 | 50 | 292 | 7.0 | 14.0 | 0.00 | 0.00 | 0.00 | 38 | 1014.7 |
| 20260506223018 | 50 | 307 | 8.0 | 14.0 | 0.00 | 0.00 | 0.00 | 37 | 1015.1 |
| 20260506222507 | 49 | 293 | 5.0 | 13.0 | 0.00 | 0.00 | 0.00 | 37 | 1015.1 |
| 20260506222012 | 49 | 6 | 7.0 | 13.0 | 0.00 | 0.00 | 0.00 | 36 | 1015.0 |
| 20260506221526 | 49 | 264 | 3.0 | 12.0 | 0.00 | 0.00 | 0.00 | 38 | 1015.1 |
| 20260506221519 | 49 | 264 | 3.0 | 8.0 | 0.00 | 0.00 | 0.00 | 40 | 1014.9 |
| 20260506221011 | 49 | 304 | 5.0 | 12.0 | 0.00 | 0.00 | 0.00 | 37 | 1015.2 |
| 20260506220508 | 49 | 31 | 5.0 | 11.0 | 0.00 | 0.00 | 0.00 | 38 | 1015.2 |
| 20260506220033 | 49 | 341 | 3.0 | 10.0 | 0.00 | 0.00 | 0.00 | 37 | 1015.2 |
| 20260506220017 | 49 | 10 | 3.0 | 10.0 | 0.00 | 0.00 | 0.00 | 38 | 1015.0 |
| 20260506215509 | 48 | 6 | 3.0 | 11.0 | 0.00 | 0.00 | 0.00 | 39 | 1015.3 |
| 20260506215009 | 48 | 311 | 6.0 | 13.0 | 0.00 | 0.00 | 0.00 | 38 | 1015.4 |
| 20260506214527 | 48 | 16 | 7.0 | 14.0 | 0.00 | 0.00 | 0.00 | 38 | 1015.3 |
| 20260506214515 | 48 | 24 | 7.0 | 14.0 | 0.00 | 0.00 | 0.00 | 39 | 1015.2 |
| 20260506214004 | 48 | 309 | 7.0 | 14.0 | 0.00 | 0.00 | 0.00 | 37 | 1015.4 |
| 20260506213506 | 48 | 25 | 7.0 | 12.0 | 0.00 | 0.00 | 0.00 | 38 | 1015.4 |
| 20260506213015 | 49 | 307 | 7.0 | 12.0 | 0.00 | 0.00 | 0.00 | 38 | 1015.5 |
| 20260506213013 | 49 | 304 | 7.0 | 12.0 | 0.00 | 0.00 | 0.00 | 38 | 1015.4 |
| 20260506212503 | 48 | 257 | 4.0 | 13.0 | 0.00 | 0.00 | 0.00 | 38 | 1015.5 |
| 20260506212006 | 48 | 328 | 6.0 | 14.0 | 0.00 | 0.00 | 0.00 | 38 | 1015.6 |
| 20260506211517 | 48 | 315 | 7.0 | 14.0 | 0.00 | 0.00 | 0.00 | 40 | 1015.5 |
| 20260506211512 | 48 | 289 | 7.0 | 14.0 | 0.00 | 0.00 | 0.00 | 39 | 1015.7 |
| 20260506211004 | 49 | 314 | 5.0 | 12.0 | 0.00 | 0.00 | 0.00 | 38 | 1015.7 |
| 20260506210506 | 48 | 286 | 2.0 | 13.0 | 0.00 | 0.00 | 0.00 | 40 | 1015.8 |
| 20260506210017 | 48 | 307 | 9.0 | 13.0 | 0.00 | 0.00 | 0.00 | 39 | 1015.7 |
| 20260506205504 | 48 | 316 | 7.0 | 17.0 | 0.00 | 0.00 | 0.00 | 38 | 1015.8 |
| 20260506205007 | 48 | 297 | 8.0 | 17.0 | 0.00 | 0.00 | 0.00 | 38 | 1015.9 |
| 20260506204515 | 48 | 317 | 8.0 | 16.0 | 0.00 | 0.00 | 0.00 | 40 | 1015.9 |
| 20260506204512 | 48 | 8 | 8.0 | 16.0 | 0.00 | 0.00 | 0.00 | 39 | 1015.9 |
| 20260506204007 | 48 | 271 | 6.0 | 16.0 | 0.00 | 0.00 | 0.00 | 38 | 1015.9 |
| 20260506203507 | 48 | 294 | 3.0 | 14.0 | 0.00 | 0.00 | 0.00 | 38 | 1016.1 |
| 20260506203012 | 48 | 302 | 9.0 | 14.0 | 0.00 | 0.00 | 0.00 | 38 | 1016.2 |
| 20260506203007 | 48 | 304 | 8.0 | 14.0 | 0.00 | 0.00 | 0.00 | 38 | 1016.0 |
| 20260506202505 | 48 | 312 | 7.0 | 16.0 | 0.00 | 0.00 | 0.00 | 39 | 1016.2 |
| 20260506202006 | 49 | 296 | 7.0 | 16.0 | 0.00 | 0.00 | 0.00 | 39 | 1016.2 |
| 20260506201514 | 48 | 319 | 3.0 | 11.0 | 0.00 | 0.00 | 0.00 | 39 | 1016.2 |
| 20260506201509 | 48 | 282 | 3.0 | 11.0 | 0.00 | 0.00 | 0.00 | 40 | 1016.1 |
| 20260506201004 | 48 | 306 | 5.0 | 15.0 | 0.00 | 0.00 | 0.00 | 39 | 1016.2 |
| 20260506200506 | 48 | 283 | 5.0 | 15.0 | 0.00 | 0.00 | 0.00 | 39 | 1016.3 |
| 20260506200021 | 47 | 304 | 9.0 | 15.0 | 0.00 | 0.00 | 0.00 | 41 | 1016.3 |
| 20260506200005 | 47 | 291 | 9.0 | 15.0 | 0.00 | 0.00 | 0.00 | 41 | 1016.3 |
| 20260506195503 | 47 | 292 | 6.0 | 11.0 | 0.00 | 0.00 | 0.00 | 39 | 1016.3 |
| 20260506195006 | 47 | 279 | 2.0 | 14.0 | 0.00 | 0.00 | 0.00 | 41 | 1016.4 |
| 20260506194517 | 47 | 302 | 9.0 | 15.0 | 0.00 | 0.00 | 0.00 | 39 | 1016.5 |
| 20260506194502 | 47 | 302 | 8.0 | 14.0 | 0.00 | 0.00 | 0.00 | 40 | 1016.5 |
| 20260506194008 | 47 | 304 | 7.0 | 16.0 | 0.00 | 0.00 | 0.00 | 40 | 1016.4 |
| 20260506193506 | 47 | 330 | 10.0 | 16.0 | 0.00 | 0.00 | 0.00 | 38 | 1016.5 |
| 20260506193015 | 48 | 295 | 6.0 | 15.0 | 0.00 | 0.00 | 0.00 | 40 | 1016.5 |
| 20260506193001 | 48 | 295 | 5.0 | 11.0 | 0.00 | 0.00 | 0.00 | 41 | 1016.5 |
| 20260506192508 | 47 | 321 | 4.0 | 15.0 | 0.00 | 0.00 | 0.00 | 43 | 1016.5 |
| 20260506192006 | 47 | 319 | 8.0 | 16.0 | 0.00 | 0.00 | 0.00 | 40 | 1016.6 |
| 20260506191605 | 47 | 309 | 5.0 | 16.0 | 0.00 | 0.00 | 0.00 | 41 | 1016.7 |
| 20260506191519 | 46 | 266 | 6.0 | 16.0 | 0.00 | 0.00 | 0.00 | 42 | 1016.5 |
| 20260506191006 | 46 | 284 | 8.0 | 15.0 | 0.00 | 0.00 | 0.00 | 40 | 1016.6 |
| 20260506190507 | 46 | 295 | 6.0 | 14.0 | 0.00 | 0.00 | 0.00 | 40 | 1016.7 |
| 20260506190059 | 46 | 300 | 4.0 | 14.0 | 0.00 | 0.00 | 0.00 | 41 | 1016.9 |
| 20260506190014 | 46 | 276 | 7.0 | 14.0 | 0.00 | 0.00 | 0.00 | 40 | 1016.8 |
| 20260506185504 | 47 | 293 | 5.0 | 15.0 | 0.00 | 0.00 | 0.00 | 42 | 1016.8 |
| 20260506185007 | 46 | 283 | 9.0 | 15.0 | 0.00 | 0.00 | 0.00 | 40 | 1016.8 |
| 20260506184600 | 46 | 309 | 3.0 | 13.0 | 0.00 | 0.00 | 0.00 | 43 | 1016.9 |
| 20260506184515 | 46 | 316 | 3.0 | 13.0 | 0.00 | 0.00 | 0.00 | 42 | 1016.8 |
| 20260506184006 | 46 | 319 | 7.0 | 12.0 | 0.00 | 0.00 | 0.00 | 40 | 1016.9 |
| 20260506183507 | 46 | 242 | 4.0 | 9.0 | 0.00 | 0.00 | 0.00 | 42 | 1017.0 |
| 20260506183104 | 45 | 331 | 5.0 | 11.0 | 0.00 | 0.00 | 0.00 | 43 | 1017.1 |
| 20260506183015 | 45 | 330 | 5.0 | 13.0 | 0.00 | 0.00 | 0.00 | 43 | 1017.2 |
| 20260506182504 | 45 | 313 | 7.0 | 15.0 | 0.00 | 0.00 | 0.00 | 41 | 1017.3 |
| 20260506182009 | 45 | 274 | 9.0 | 15.0 | 0.00 | 0.00 | 0.00 | 41 | 1017.3 |
| 20260506181605 | 46 | 303 | 2.0 | 14.0 | 0.00 | 0.00 | 0.00 | 43 | 1017.3 |
| 20260506181518 | 46 | 313 | 2.0 | 14.0 | 0.00 | 0.00 | 0.00 | 45 | 1017.2 |
| 20260506181005 | 45 | 304 | 7.0 | 14.0 | 0.00 | 0.00 | 0.00 | 44 | 1017.3 |
| 20260506180504 | 45 | 324 | 6.0 | 17.0 | 0.00 | 0.00 | 0.00 | 44 | 1017.3 |
| 20260506180055 | 45 | 300 | 4.0 | 17.0 | 0.00 | 0.00 | 0.00 | 44 | 1017.5 |
| 20260506180017 | 45 | 302 | 5.0 | 17.0 | 0.00 | 0.00 | 0.00 | 43 | 1017.4 |
| 20260506175505 | 45 | 316 | 8.0 | 15.0 | 0.00 | 0.00 | 0.00 | 44 | 1017.5 |
| 20260506175006 | 45 | 307 | 4.0 | 14.0 | 0.00 | 0.00 | 0.00 | 44 | 1017.4 |
| 20260506174552 | 45 | 283 | 2.0 | 14.0 | 0.00 | 0.00 | 0.00 | 47 | 1017.6 |
| 20260506174516 | 45 | 274 | 3.0 | 14.0 | 0.00 | 0.00 | 0.00 | 46 | 1017.6 |
| 20260506174007 | 44 | 290 | 4.0 | 16.0 | 0.00 | 0.00 | 0.00 | 45 | 1017.7 |
| 20260506173507 | 44 | 286 | 6.0 | 16.0 | 0.00 | 0.00 | 0.00 | 44 | 1017.8 |
| 20260506173116 | 43 | 262 | 3.0 | 15.0 | 0.00 | 0.00 | 0.00 | 47 | 1017.9 |
| 20260506173017 | 43 | 332 | 5.0 | 15.0 | 0.00 | 0.00 | 0.00 | 46 | 1017.8 |
| 20260506172506 | 43 | 319 | 9.0 | 15.0 | 0.00 | 0.00 | 0.00 | 46 | 1017.8 |
| 20260506172008 | 43 | 298 | 5.0 | 11.0 | 0.00 | 0.00 | 0.00 | 46 | 1017.8 |
| 20260506171549 | 44 | 308 | 7.0 | 13.0 | 0.00 | 0.00 | 0.00 | 47 | 1018.0 |
| 20260506171518 | 44 | 319 | 6.0 | 13.0 | 0.00 | 0.00 | 0.00 | 46 | 1017.9 |
| 20260506171007 | 43 | 266 | 4.0 | 13.0 | 0.00 | 0.00 | 0.00 | 46 | 1017.9 |
| 20260506170509 | 43 | 316 | 6.0 | 15.0 | 0.00 | 0.00 | 0.00 | 46 | 1017.9 |
| 20260506170103 | 43 | 291 | 4.0 | 15.0 | 0.00 | 0.00 | 0.00 | 49 | 1018.1 |
| 20260506170018 | 42 | 304 | 5.0 | 15.0 | 0.00 | 0.00 | 0.00 | 47 | 1017.9 |
| 20260506165505 | 42 | 310 | 8.0 | 14.0 | 0.00 | 0.00 | 0.00 | 47 | 1018.0 |
| 20260506165008 | 42 | 299 | 9.0 | 16.0 | 0.00 | 0.00 | 0.00 | 46 | 1018.0 |
| 20260506164547 | 42 | 301 | 6.0 | 16.0 | 0.00 | 0.00 | 0.00 | 48 | 1018.2 |
| 20260506164518 | 42 | 326 | 7.0 | 16.0 | 0.00 | 0.00 | 0.00 | 47 | 1018.0 |
| 20260506164009 | 42 | 327 | 3.0 | 12.0 | 0.00 | 0.00 | 0.00 | 48 | 1018.0 |
| 20260506163510 | 42 | 4 | 6.0 | 12.0 | 0.00 | 0.00 | 0.00 | 44 | 1018.0 |
| 20260506163053 | 43 | 333 | 6.0 | 12.0 | 0.00 | 0.00 | 0.00 | 48 | 1018.3 |
| 20260506163031 | 43 | 314 | 6.0 | 12.0 | 0.00 | 0.00 | 0.00 | 47 | 1018.1 |
| 20260506162507 | 42 | 270 | 6.0 | 13.0 | 0.00 | 0.00 | 0.00 | 48 | 1018.1 |
| 20260506162008 | 42 | 298 | 7.0 | 13.0 | 0.00 | 0.00 | 0.00 | 44 | 1018.1 |
| 20260506161545 | 43 | 278 | 2.0 | 10.0 | 0.00 | 0.00 | 0.00 | 48 | 1018.3 |
| 20260506161520 | 42 | 249 | 3.0 | 13.0 | 0.00 | 0.00 | 0.00 | 49 | 1018.0 |
| 20260506161007 | 42 | 304 | 5.0 | 14.0 | 0.00 | 0.00 | 0.00 | 47 | 1018.1 |
| 20260506160506 | 42 | 296 | 8.0 | 14.0 | 0.00 | 0.00 | 0.00 | 46 | 1018.2 |
| 20260506160044 | 42 | 290 | 3.0 | 8.0 | 0.00 | 0.00 | 0.00 | 49 | 1018.4 |
| 20260506160022 | 42 | 266 | 4.0 | 8.0 | 0.00 | 0.00 | 0.00 | 48 | 1018.2 |
| 20260506155508 | 42 | 230 | 5.0 | 11.0 | 0.00 | 0.00 | 0.00 | 49 | 1018.2 |
| 20260506155008 | 42 | 290 | 4.0 | 13.0 | 0.00 | 0.00 | 0.00 | 48 | 1018.2 |
| 20260506154603 | 42 | 297 | 6.0 | 13.0 | 0.00 | 0.00 | 0.00 | 49 | 1018.3 |
| 20260506154530 | 42 | 306 | 7.0 | 13.0 | 0.00 | 0.00 | 0.00 | 49 | 1018.2 |
| 20260506154010 | 42 | 297 | 7.0 | 11.0 | 0.00 | 0.00 | 0.00 | 48 | 1018.2 |
| 20260506153510 | 42 | 333 | 3.0 | 11.0 | 0.00 | 0.00 | 0.00 | 48 | 1018.2 |
| 20260506153040 | 42 | 305 | 3.0 | 9.0 | 0.00 | 0.00 | 0.00 | 51 | 1018.4 |
| 20260506153018 | 42 | 302 | 4.0 | 10.0 | 0.00 | 0.00 | 0.00 | 50 | 1018.2 |
| 20260506152506 | 42 | 297 | 4.0 | 12.0 | 0.00 | 0.00 | 0.00 | 49 | 1018.2 |
| 20260506152009 | 42 | 314 | 7.0 | 12.0 | 0.00 | 0.00 | 0.00 | 48 | 1018.2 |
| 20260506151540 | 42 | 261 | 2.0 | 11.0 | 0.00 | 0.00 | 0.00 | 50 | 1018.4 |
| 20260506151523 | 42 | 290 | 3.0 | 11.0 | 0.00 | 0.00 | 0.00 | 48 | 1018.2 |
| 20260506151009 | 42 | 277 | 6.0 | 11.0 | 0.00 | 0.00 | 0.00 | 49 | 1018.2 |
| 20260506150509 | 42 | 319 | 1.0 | 8.0 | 0.00 | 0.00 | 0.00 | 51 | 1018.4 |
| 20260506150038 | 41 | 326 | 4.0 | 8.0 | 0.00 | 0.00 | 0.00 | 48 | 1018.5 |
| 20260506150022 | 41 | 316 | 5.0 | 8.0 | 0.00 | 0.00 | 0.00 | 49 | 1018.5 |
| 20260506145511 | 41 | 323 | 1.0 | 8.0 | 0.00 | 0.00 | 0.00 | 51 | 1018.6 |
| 20260506145009 | 41 | 329 | 3.0 | 8.0 | 0.00 | 0.00 | 0.00 | 51 | 1018.5 |
| 20260506144542 | 41 | 291 | 3.0 | 8.0 | 0.00 | 0.00 | 0.00 | 50 | 1018.5 |
| 20260506144520 | 41 | 291 | 4.0 | 8.0 | 0.00 | 0.00 | 0.00 | 49 | 1018.5 |
| 20260506144006 | 41 | 307 | 3.0 | 9.0 | 0.00 | 0.00 | 0.00 | 52 | 1018.6 |
| 20260506143509 | 40 | 297 | 5.0 | 9.0 | 0.00 | 0.00 | 0.00 | 47 | 1018.6 |
| 20260506143035 | 41 | 263 | 1.0 | 6.0 | 0.00 | 0.00 | 0.00 | 52 | 1018.6 |
| 20260506143021 | 41 | 273 | 1.0 | 6.0 | 0.00 | 0.00 | 0.00 | 52 | 1018.6 |
| 20260506142507 | 40 | 290 | 3.0 | 6.0 | 0.00 | 0.00 | 0.00 | 51 | 1018.6 |
| 20260506142009 | 40 | 253 | 2.0 | 6.0 | 0.00 | 0.00 | 0.00 | 52 | 1018.6 |
| 20260506141532 | 40 | 297 | 2.0 | 6.0 | 0.00 | 0.00 | 0.00 | 52 | 1018.7 |
| 20260506141520 | 40 | 314 | 3.0 | 6.0 | 0.00 | 0.00 | 0.00 | 52 | 1018.7 |
| 20260506141011 | 40 | 260 | 2.0 | 5.0 | 0.00 | 0.00 | 0.00 | 53 | 1018.7 |
| 20260506140511 | 39 | 267 | 1.0 | 5.0 | 0.00 | 0.00 | 0.00 | 55 | 1018.6 |
| 20260506140033 | 39 | 248 | 2.0 | 5.0 | 0.00 | 0.00 | 0.00 | 54 | 1018.7 |
| 20260506140025 | 39 | 240 | 2.0 | 5.0 | 0.00 | 0.00 | 0.00 | 53 | 1018.6 |
| 20260506135510 | 39 | 21 | 3.0 | 5.0 | 0.00 | 0.00 | 0.00 | 53 | 1018.6 |
| 20260506135009 | 39 | 325 | 2.0 | 6.0 | 0.00 | 0.00 | 0.00 | 54 | 1018.6 |
| 20260506134527 | 38 | 317 | 3.0 | 6.0 | 0.00 | 0.00 | 0.00 | 54 | 1018.7 |
| 20260506134522 | 38 | 314 | 4.0 | 6.0 | 0.00 | 0.00 | 0.00 | 54 | 1018.5 |
| 20260506134009 | 38 | 314 | 4.0 | 6.0 | 0.00 | 0.00 | 0.00 | 53 | 1018.6 |
| 20260506133506 | 38 | 294 | 3.0 | 6.0 | 0.00 | 0.00 | 0.00 | 53 | 1018.6 |
| 20260506133025 | 38 | 309 | 3.0 | 5.0 | 0.00 | 0.00 | 0.00 | 54 | 1018.6 |
| 20260506132510 | 38 | 278 | 1.0 | 5.0 | 0.00 | 0.00 | 0.00 | 56 | 1018.6 |
| 20260506132007 | 37 | 305 | 3.0 | 5.0 | 0.00 | 0.00 | 0.00 | 56 | 1018.5 |
| 20260506131521 | 37 | 314 | 2.0 | 5.0 | 0.00 | 0.00 | 0.00 | 58 | 1018.5 |
| 20260506131008 | 37 | 16 | 3.0 | 5.0 | 0.00 | 0.00 | 0.00 | 59 | 1018.4 |
| 20260506130508 | 37 | 313 | 3.0 | 5.0 | 0.00 | 0.00 | 0.00 | 61 | 1018.4 |
| 20260506130024 | 36 | 305 | 3.0 | 5.0 | 0.00 | 0.00 | 0.00 | 61 | 1018.4 |
| 20260506130017 | 36 | 308 | 2.0 | 5.0 | 0.00 | 0.00 | 0.00 | 61 | 1018.4 |
| 20260506125509 | 36 | 6 | 2.0 | 4.0 | 0.00 | 0.00 | 0.00 | 64 | 1018.3 |
| 20260506125010 | 36 | 310 | 2.0 | 4.0 | 0.00 | 0.00 | 0.00 | 65 | 1018.3 |
| 20260506124524 | 35 | 297 | 2.0 | 4.0 | 0.00 | 0.00 | 0.00 | 65 | 1018.3 |
| 20260506124514 | 35 | 319 | 2.0 | 4.0 | 0.00 | 0.00 | 0.00 | 66 | 1018.3 |
| 20260506124004 | 35 | 356 | 1.0 | 4.0 | 0.00 | 0.00 | 0.00 | 68 | 1018.3 |
| 20260506123504 | 35 | 328 | 1.0 | 2.0 | 0.00 | 0.00 | 0.00 | 68 | 1018.3 |
| 20260506123012 | 34 | 322 | 1.0 | 2.0 | 0.00 | 0.00 | 0.00 | 69 | 1018.2 |
| 20260506122505 | 34 | 345 | 0.0 | 1.0 | 0.00 | 0.00 | 0.00 | 70 | 1018.1 |
| 20260506122006 | 34 | 317 | 0.0 | 1.0 | 0.00 | 0.00 | 0.00 | 71 | 1018.0 |
| 20260506121514 | 34 | 317 | 0.0 | 0.0 | 0.00 | 0.00 | 0.00 | 72 | 1018.0 |
| 20260506121509 | 34 | 317 | 0.0 | 0.0 | 0.00 | 0.00 | 0.00 | 72 | 1018.1 |
| 20260506121007 | 33 | 317 | 0.0 | 1.0 | 0.00 | 0.00 | 0.00 | 72 | 1017.9 |
| 20260506120511 | 33 | 317 | 0.0 | 1.0 | 0.00 | 0.00 | 0.00 | 72 | 1017.9 |
| 20260506120008 | 33 | 322 | 0.0 | 1.0 | 0.00 | 0.00 | 0.00 | 73 | 1017.9 |
| 20260506120004 | 33 | 322 | 0.0 | 1.0 | 0.00 | 0.00 | 0.00 | 73 | 1017.8 |
| 20260506115504 | 33 | 326 | 1.0 | 2.0 | 0.00 | 0.00 | 0.00 | 73 | 1017.6 |
| 20260506115004 | 33 | 304 | 1.0 | 2.0 | 0.00 | 0.00 | 0.00 | 73 | 1017.5 |
| 20260506114507 | 33 | 317 | 1.0 | 2.0 | 0.00 | 0.00 | 0.00 | 74 | 1017.8 |
| 20260506114005 | 33 | 314 | 1.0 | 2.0 | 0.00 | 0.00 | 0.00 | 74 | 1017.4 |
| 20260506113503 | 33 | 320 | 1.0 | 2.0 | 0.00 | 0.00 | 0.00 | 74 | 1017.4 |
| 20260506113015 | 33 | 319 | 1.0 | 2.0 | 0.00 | 0.00 | 0.00 | 74 | 1017.4 |
| 20260506113006 | 33 | 322 | 0.0 | 2.0 | 0.00 | 0.00 | 0.00 | 75 | 1017.7 |
| 20260506112505 | 33 | 309 | 1.0 | 2.0 | 0.00 | 0.00 | 0.00 | 75 | 1017.3 |
| 20260506112006 | 32 | 327 | 1.0 | 2.0 | 0.00 | 0.00 | 0.00 | 75 | 1017.3 |
| 20260506111518 | 33 | 314 | 1.0 | 2.0 | 0.00 | 0.00 | 0.00 | 75 | 1017.3 |
| 20260506111503 | 33 | 314 | 1.0 | 2.0 | 0.00 | 0.00 | 0.00 | 75 | 1017.6 |
| 20260506111003 | 33 | 314 | 1.0 | 2.0 | 0.00 | 0.00 | 0.00 | 75 | 1017.2 |
| 20260506110504 | 33 | 311 | 1.0 | 2.0 | 0.00 | 0.00 | 0.00 | 74 | 1017.2 |
| 20260506110018 | 33 | 317 | 1.0 | 2.0 | 0.00 | 0.00 | 0.00 | 74 | 1017.2 |
| 20260506110001 | 33 | 317 | 1.0 | 2.0 | 0.00 | 0.00 | 0.00 | 75 | 1017.3 |
| 20260506105509 | 33 | 314 | 1.0 | 3.0 | 0.00 | 0.00 | 0.00 | 74 | 1017.2 |
| 20260506105005 | 33 | 323 | 1.0 | 3.0 | 0.00 | 0.00 | 0.00 | 74 | 1017.2 |
| 20260506104634 | 33 | 329 | 1.0 | 4.0 | 0.00 | 0.00 | 0.00 | 74 | 1017.4 |
| 20260506104502 | 33 | 316 | 2.0 | 4.0 | 0.00 | 0.00 | 0.00 | 74 | 1017.2 |
| 20260506104001 | 33 | 318 | 2.0 | 4.0 | 0.00 | 0.00 | 0.00 | 73 | 1017.2 |
| 20260506103502 | 33 | 312 | 2.0 | 4.0 | 0.00 | 0.00 | 0.00 | 73 | 1017.2 |
| 20260506103057 | 33 | 320 | 2.0 | 3.0 | 0.00 | 0.00 | 0.00 | 74 | 1017.3 |
| 20260506103006 | 33 | 314 | 2.0 | 3.0 | 0.00 | 0.00 | 0.00 | 74 | 1017.2 |
| 20260506102503 | 33 | 311 | 2.0 | 4.0 | 0.00 | 0.00 | 0.00 | 74 | 1017.2 |
| 20260506102003 | 33 | 317 | 2.0 | 4.0 | 0.00 | 0.00 | 0.00 | 74 | 1017.2 |
| 20260506101555 | 33 | 323 | 2.0 | 4.0 | 0.00 | 0.00 | 0.00 | 74 | 1017.4 |
| 20260506101509 | 33 | 311 | 2.0 | 3.0 | 0.00 | 0.00 | 0.00 | 73 | 1017.2 |
| 20260506101008 | 33 | 314 | 2.0 | 3.0 | 0.00 | 0.00 | 0.00 | 73 | 1017.2 |
| 20260506100502 | 33 | 309 | 2.0 | 3.0 | 0.00 | 0.00 | 0.00 | 72 | 1017.2 |
| 20260506100053 | 33 | 309 | 1.0 | 3.0 | 0.00 | 0.00 | 0.00 | 73 | 1017.3 |
| 20260506100016 | 33 | 304 | 1.0 | 3.0 | 0.00 | 0.00 | 0.00 | 73 | 1017.2 |
| 20260506095506 | 33 | 309 | 2.0 | 3.0 | 0.00 | 0.00 | 0.00 | 73 | 1017.2 |
| 20260506095005 | 33 | 309 | 1.0 | 3.0 | 0.00 | 0.00 | 0.00 | 73 | 1017.2 |
| 20260506094551 | 33 | 311 | 1.0 | 3.0 | 0.00 | 0.00 | 0.00 | 74 | 1017.3 |
| 20260506094520 | 33 | 307 | 1.0 | 3.0 | 0.00 | 0.00 | 0.00 | 73 | 1017.2 |
| 20260506094009 | 33 | 320 | 1.0 | 3.0 | 0.00 | 0.00 | 0.00 | 73 | 1017.2 |
| 20260506093510 | 34 | 313 | 1.0 | 3.0 | 0.00 | 0.00 | 0.00 | 73 | 1017.2 |
| 20260506093051 | 34 | 309 | 1.0 | 4.0 | 0.00 | 0.00 | 0.00 | 72 | 1017.2 |
| 20260506093034 | 34 | 304 | 1.0 | 4.0 | 0.00 | 0.00 | 0.00 | 72 | 1017.1 |
| 20260506092503 | 34 | 312 | 1.0 | 4.0 | 0.00 | 0.00 | 0.00 | 72 | 1017.1 |
| 20260506092003 | 34 | 302 | 2.0 | 4.0 | 0.00 | 0.00 | 0.00 | 72 | 1017.0 |
| 20260506091550 | 34 | 313 | 2.0 | 4.0 | 0.00 | 0.00 | 0.00 | 73 | 1017.2 |
| 20260506091510 | 34 | 309 | 2.0 | 4.0 | 0.00 | 0.00 | 0.00 | 72 | 1017.1 |
| 20260506091003 | 34 | 301 | 2.0 | 4.0 | 0.00 | 0.00 | 0.00 | 72 | 1017.0 |
| 20260506090502 | 34 | 326 | 1.0 | 4.0 | 0.00 | 0.00 | 0.00 | 72 | 1017.0 |
| 20260506090049 | 34 | 305 | 2.0 | 4.0 | 0.00 | 0.00 | 0.00 | 73 | 1017.0 |
| 20260506090010 | 33 | 296 | 2.0 | 4.0 | 0.00 | 0.00 | 0.00 | 73 | 1017.0 |
| 20260506085502 | 34 | 316 | 2.0 | 4.0 | 0.00 | 0.00 | 0.00 | 73 | 1017.0 |
| 20260506085006 | 34 | 295 | 2.0 | 3.0 | 0.00 | 0.00 | 0.00 | 73 | 1016.9 |
| 20260506084547 | 34 | 297 | 1.0 | 3.0 | 0.00 | 0.00 | 0.00 | 74 | 1016.9 |
| 20260506084516 | 33 | 304 | 2.0 | 3.0 | 0.00 | 0.00 | 0.00 | 74 | 1016.9 |
| 20260506084005 | 33 | 305 | 0.0 | 3.0 | 0.00 | 0.00 | 0.00 | 74 | 1016.7 |
| 20260506083509 | 33 | 318 | 1.0 | 3.0 | 0.00 | 0.00 | 0.00 | 75 | 1016.7 |
| 20260506083048 | 33 | 315 | 1.0 | 3.0 | 0.00 | 0.00 | 0.00 | 75 | 1016.8 |
| 20260506083021 | 33 | 307 | 1.0 | 4.0 | 0.00 | 0.00 | 0.00 | 75 | 1016.7 |
| 20260506082511 | 33 | 305 | 2.0 | 4.0 | 0.00 | 0.00 | 0.00 | 75 | 1016.8 |
| 20260506082012 | 33 | 310 | 2.0 | 4.0 | 0.00 | 0.00 | 0.00 | 74 | 1016.7 |
| 20260506081545 | 34 | 297 | 1.0 | 3.0 | 0.00 | 0.00 | 0.00 | 74 | 1016.8 |
| 20260506081522 | 34 | 311 | 1.0 | 3.0 | 0.00 | 0.00 | 0.00 | 74 | 1016.8 |
| 20260506081006 | 34 | 312 | 1.0 | 2.0 | 0.00 | 0.00 | 0.00 | 73 | 1016.7 |
| 20260506080503 | 34 | 316 | 1.0 | 2.0 | 0.00 | 0.00 | 0.00 | 73 | 1016.7 |
| 20260506073510 | 34 | 319 | 1.0 | 2.0 | 0.00 | 0.00 | 0.00 | 71 | 1016.6 |
| 20260506073043 | 34 | 306 | 0.0 | 2.0 | 0.00 | 0.00 | 0.00 | 71 | 1016.8 |
| 20260506073016 | 34 | 306 | 1.0 | 2.0 | 0.00 | 0.00 | 0.00 | 70 | 1016.6 |
| 20260506072507 | 33 | 314 | 0.0 | 1.0 | 0.00 | 0.00 | 0.00 | 70 | 1016.6 |
| 20260506072015 | 33 | 316 | 0.0 | 1.0 | 0.00 | 0.00 | 0.00 | 70 | 1016.7 |
| 20260506071541 | 33 | 316 | 0.0 | 1.0 | 0.00 | 0.00 | 0.00 | 70 | 1016.8 |
| 20260506071523 | 33 | 316 | 1.0 | 1.0 | 0.00 | 0.00 | 0.00 | 69 | 1016.7 |
| 20260506071009 | 33 | 316 | 1.0 | 1.0 | 0.00 | 0.00 | 0.00 | 68 | 1016.8 |
| 20260506070507 | 33 | 316 | 0.0 | 1.0 | 0.00 | 0.00 | 0.00 | 67 | 1016.7 |
| 20260506062503 | 34 | 316 | 0.0 | 0.0 | 0.00 | 0.00 | 0.00 | 67 | 1016.8 |
| 20260506062011 | 33 | 316 | 0.0 | 0.0 | 0.00 | 0.00 | 0.00 | 67 | 1016.8 |
| 20260506061538 | 33 | 315 | 0.0 | 0.0 | 0.00 | 0.00 | 0.00 | 68 | 1016.8 |
| 20260506061518 | 33 | 315 | 0.0 | 1.0 | 0.00 | 0.00 | 0.00 | 67 | 1016.8 |
| 20260506061007 | 33 | 315 | 0.0 | 2.0 | 0.00 | 0.00 | 0.00 | 68 | 1016.8 |
| 20260506060507 | 33 | 315 | 1.0 | 2.0 | 0.00 | 0.00 | 0.00 | 67 | 1016.9 |
| 20260506051007 | 34 | 328 | 1.0 | 3.0 | 0.00 | 0.00 | 0.00 | 64 | 1016.4 |
| 20260506050507 | 35 | 14 | 1.0 | 3.0 | 0.00 | 0.00 | 0.00 | 63 | 1016.4 |
| 20260506045007 | 35 | 342 | 1.0 | 3.0 | 0.00 | 0.00 | 0.00 | 62 | 1016.4 |
| 20260506044532 | 36 | 317 | 1.0 | 2.0 | 0.00 | 0.00 | 0.00 | 62 | 1016.4 |
| 20260506044521 | 36 | 317 | 1.0 | 2.0 | 0.00 | 0.00 | 0.00 | 61 | 1016.4 |
| 20260506044009 | 36 | 27 | 1.0 | 4.0 | 0.00 | 0.00 | 0.00 | 60 | 1016.3 |
| 20260506043511 | 36 | 338 | 2.0 | 4.0 | 0.00 | 0.00 | 0.00 | 60 | 1016.3 |
| 20260506043027 | 36 | 37 | 1.0 | 4.0 | 0.00 | 0.00 | 0.00 | 59 | 1016.2 |
| 20260506042508 | 36 | 13 | 1.0 | 5.0 | 0.00 | 0.00 | 0.00 | 59 | 1016.3 |
| 20260506042011 | 36 | 358 | 2.0 | 5.0 | 0.00 | 0.00 | 0.00 | 59 | 1016.3 |
| 20260506041524 | 36 | 352 | 1.0 | 4.0 | 0.00 | 0.00 | 0.00 | 60 | 1016.3 |
| 20260506041511 | 36 | 15 | 1.0 | 4.0 | 0.00 | 0.00 | 0.00 | 59 | 1016.3 |
| 20260506041004 | 36 | 46 | 1.0 | 4.0 | 0.00 | 0.00 | 0.00 | 59 | 1016.4 |
| 20260506040511 | 36 | 346 | 2.0 | 4.0 | 0.00 | 0.00 | 0.00 | 58 | 1016.4 |
| 20260506040039 | 36 | 331 | 2.0 | 5.0 | 0.00 | 0.00 | 0.00 | 59 | 1016.3 |
| 20260506040018 | 37 | 10 | 2.0 | 6.0 | 0.00 | 0.00 | 0.00 | 58 | 1016.3 |
| 20260506035508 | 37 | 350 | 2.0 | 6.0 | 0.00 | 0.00 | 0.00 | 58 | 1016.4 |
| 20260506035005 | 37 | 25 | 4.0 | 5.0 | 0.00 | 0.00 | 0.00 | 59 | 1016.4 |
| 20260506034523 | 37 | 352 | 2.0 | 4.0 | 0.00 | 0.00 | 0.00 | 59 | 1016.3 |
| 20260506034009 | 37 | 27 | 2.0 | 4.0 | 0.00 | 0.00 | 0.00 | 58 | 1016.3 |
| 20260506033507 | 37 | 12 | 2.0 | 4.0 | 0.00 | 0.00 | 0.00 | 57 | 1016.3 |
| 20260506033026 | 38 | 321 | 1.0 | 4.0 | 0.00 | 0.00 | 0.00 | 57 | 1016.1 |
| 20260506032507 | 38 | 311 | 2.0 | 4.0 | 0.00 | 0.00 | 0.00 | 56 | 1015.9 |
| 20260506032011 | 38 | 342 | 2.0 | 4.0 | 0.00 | 0.00 | 0.00 | 56 | 1015.8 |
| 20260506031526 | 38 | 342 | 2.0 | 6.0 | 0.00 | 0.00 | 0.00 | 55 | 1015.7 |
| 20260506031518 | 38 | 8 | 2.0 | 6.0 | 0.00 | 0.00 | 0.00 | 56 | 1015.7 |
| 20260506031008 | 39 | 335 | 3.0 | 6.0 | 0.00 | 0.00 | 0.00 | 55 | 1015.7 |
| 20260506030513 | 39 | 340 | 3.0 | 6.0 | 0.00 | 0.00 | 0.00 | 55 | 1015.7 |
| 20260506030019 | 39 | 330 | 3.0 | 6.0 | 0.00 | 0.00 | 0.00 | 55 | 1015.6 |
| 20260506030012 | 39 | 357 | 3.0 | 6.0 | 0.00 | 0.00 | 0.00 | 55 | 1015.7 |
| 20260506025511 | 39 | 316 | 3.0 | 8.0 | 0.00 | 0.00 | 0.00 | 55 | 1015.5 |
| 20260506025008 | 39 | 345 | 4.0 | 8.0 | 0.00 | 0.00 | 0.00 | 55 | 1015.4 |
| 20260506024525 | 39 | 21 | 4.0 | 8.0 | 0.00 | 0.00 | 0.00 | 55 | 1015.4 |
| 20260506024517 | 39 | 30 | 4.0 | 8.0 | 0.00 | 0.00 | 0.00 | 54 | 1015.4 |
| 20260506024010 | 39 | 30 | 4.0 | 8.0 | 0.00 | 0.00 | 0.00 | 54 | 1015.4 |
| 20260506023507 | 39 | 338 | 3.0 | 7.0 | 0.00 | 0.00 | 0.00 | 54 | 1015.3 |
| 20260506023022 | 39 | 25 | 4.0 | 7.0 | 0.00 | 0.00 | 0.00 | 54 | 1015.3 |
| 20260506023012 | 39 | 8 | 3.0 | 7.0 | 0.00 | 0.00 | 0.00 | 54 | 1015.3 |
| 20260506022509 | 39 | 8 | 3.0 | 8.0 | 0.00 | 0.00 | 0.00 | 53 | 1015.2 |
| 20260506022008 | 40 | 359 | 4.0 | 8.0 | 0.00 | 0.00 | 0.00 | 52 | 1015.1 |
| 20260506021525 | 40 | 322 | 4.0 | 8.0 | 0.00 | 0.00 | 0.00 | 52 | 1015.1 |
| 20260506021511 | 40 | 323 | 3.0 | 8.0 | 0.00 | 0.00 | 0.00 | 53 | 1015.0 |
| 20260506021008 | 40 | 5 | 3.0 | 9.0 | 0.00 | 0.00 | 0.00 | 52 | 1015.1 |
| 20260506020512 | 41 | 340 | 4.0 | 9.0 | 0.00 | 0.00 | 0.00 | 50 | 1014.9 |
| 20260506020056 | 41 | 5 | 4.0 | 13.0 | 0.00 | 0.00 | 0.00 | 49 | 1014.7 |
| 20260506020008 | 41 | 327 | 3.0 | 12.0 | 0.00 | 0.00 | 0.00 | 49 | 1014.6 |
| 20260506015509 | 41 | 49 | 5.0 | 13.0 | 0.00 | 0.00 | 0.00 | 48 | 1014.6 |
| 20260506015011 | 42 | 306 | 8.0 | 12.0 | 0.00 | 0.00 | 0.00 | 49 | 1014.8 |
| 20260506014515 | 42 | 312 | 6.0 | 12.0 | 0.00 | 0.00 | 0.00 | 49 | 1014.6 |
| 20260506014510 | 42 | 314 | 6.0 | 12.0 | 0.00 | 0.00 | 0.00 | 48 | 1014.7 |
| 20260506014007 | 42 | 313 | 6.0 | 12.0 | 0.00 | 0.00 | 0.00 | 47 | 1014.7 |
| 20260506013507 | 42 | 315 | 5.0 | 12.0 | 0.00 | 0.00 | 0.00 | 47 | 1014.7 |
| 20260506013016 | 43 | 7 | 7.0 | 12.0 | 0.00 | 0.00 | 0.00 | 45 | 1014.6 |
| 20260506013005 | 43 | 10 | 6.0 | 12.0 | 0.00 | 0.00 | 0.00 | 46 | 1014.4 |